Weather History for KCIU - October, 2010

Change the Weather History Date:

Tuesday, October 19, 2010

  Actual Average Record
Temperature  
Mean Temperature 42 °F -  
Max Temperature 50 °F 51 °F 65 °F (1979)
Min Temperature 33 °F 33 °F 17 °F (1989)
Degree Days  
Heating Degree Days 24    
Moisture  
Dew Point 30 °F    
Average Humidity 68    
Maximum Humidity 81    
Minimum Humidity 46    
Precipitation  
Precipitation 0.00 in - - ()
Sea Level Pressure  
Sea Level Pressure 29.80 in    
Wind  
Wind Speed 7 mph (WSW)    
Max Wind Speed 21 mph    
Max Gust Speed 28 mph    
Visibility 10 miles    
Events      
Averages and records for this station are not official NWS values.
T = Trace of Precipitation, MM = Missing Value Source: NWS Daily Summary

Daily Weather History Graph

Daily Weather History Graph

Search for Another Location

Airport or City:

Trip Planner

Search our weather history database for the weather conditions in past years. The results will help you decide how hot, cold, wet, or windy it might be!

Date:

Astronomy

Oct. 19, 2010 Rise Set
Actual Time 8:00 AM EDT 6:44 PM EDT
Civil Twilight 7:30 AM EDT 7:14 PM EDT
Nautical Twilight 6:55 AM EDT 7:49 PM EDT
Astronomical Twilight 6:20 AM EDT 8:24 PM EDT
Moon 5:00 PM EDT (10/19) 4:35 AM EDT (10/19)
Length of Visible Light 11h 44m
Length of Day
10h 43m
Waxing Gibbous, 89% of the Moon is Illuminated
Oct 19
Waxing Gibbous
Oct 22
Full
Oct 30
Last Quarter
Nov 6
New
Nov 13
First Quarter

Hourly Weather History & Observations

Time (EDT) Temp. Windchill Dew Point Humidity Pressure Visibility Wind Dir Wind Speed Gust Speed Precip Events Conditions
12:15 AM 35.6 °F 31.7 °F 28.4 °F 75% 29.88 in 10.0 mi West 4.6 mph - N/A   Partly Cloudy
12:35 AM 35.6 °F 30.7 °F 28.4 °F 75% 29.87 in 10.0 mi WSW 5.8 mph - N/A   Clear
12:55 AM 35.6 °F 31.7 °F 28.4 °F 75% 29.87 in 10.0 mi SW 4.6 mph - N/A   Clear
1:15 AM 35.6 °F 30.7 °F 28.4 °F 75% 29.86 in 10.0 mi SW 5.8 mph - N/A   Clear
1:35 AM 35.6 °F 30.7 °F 28.4 °F 75% 29.85 in 10.0 mi SW 5.8 mph - N/A   Clear
1:55 AM 35.6 °F 31.7 °F 28.4 °F 75% 29.85 in 10.0 mi SW 4.6 mph - N/A   Clear
2:15 AM 35.6 °F 30.7 °F 28.4 °F 75% 29.85 in 10.0 mi SW 5.8 mph - N/A   Clear
2:35 AM 35.6 °F 29.9 °F 30.2 °F 81% 29.84 in 10.0 mi SW 6.9 mph - N/A   Clear
2:55 AM 35.6 °F 29.9 °F 28.4 °F 75% 29.83 in 10.0 mi SW 6.9 mph - N/A   Clear
3:15 AM 35.6 °F 30.7 °F 28.4 °F 75% 29.83 in 10.0 mi SW 5.8 mph - N/A   Clear
3:35 AM 35.6 °F 30.7 °F 28.4 °F 75% 29.82 in 10.0 mi SW 5.8 mph - N/A   Clear
3:55 AM 33.8 °F 29.6 °F 26.6 °F 75% 29.82 in 10.0 mi SW 4.6 mph - N/A   Clear
4:15 AM 33.8 °F 29.6 °F 26.6 °F 75% 29.82 in 10.0 mi SW 4.6 mph - N/A   Scattered Clouds
4:35 AM 35.6 °F 32.8 °F 26.6 °F 70% 29.81 in 10.0 mi SSW 3.5 mph - N/A   Overcast
4:55 AM 35.6 °F 30.7 °F 26.6 °F 70% 29.80 in 10.0 mi SSW 5.8 mph - N/A   Overcast
5:15 AM 35.6 °F 30.7 °F 24.8 °F 65% 29.80 in 10.0 mi SW 5.8 mph - N/A   Mostly Cloudy
5:35 AM 35.6 °F 29.9 °F 24.8 °F 65% 29.80 in 10.0 mi SW 6.9 mph - N/A   Partly Cloudy
5:55 AM 35.6 °F 30.7 °F 24.8 °F 65% 29.80 in 10.0 mi SW 5.8 mph - N/A   Clear
6:15 AM 35.6 °F 29.9 °F 24.8 °F 65% 29.79 in 10.0 mi SW 6.9 mph - N/A   Clear
6:35 AM 35.6 °F 30.7 °F 24.8 °F 65% 29.79 in 10.0 mi SSW 5.8 mph - N/A   Clear
6:55 AM 35.6 °F 29.9 °F 24.8 °F 65% 29.79 in 10.0 mi SW 6.9 mph - N/A   Clear
7:15 AM 35.6 °F 30.7 °F 24.8 °F 65% 29.79 in 10.0 mi WSW 5.8 mph - N/A   Mostly Cloudy
7:35 AM 33.8 °F 27.7 °F 24.8 °F 70% 29.79 in 10.0 mi WSW 6.9 mph - N/A   Overcast
7:55 AM 33.8 °F 27.7 °F 24.8 °F 70% 29.80 in 10.0 mi WSW 6.9 mph - N/A   Mostly Cloudy
8:15 AM 33.8 °F 29.6 °F 24.8 °F 70% 29.78 in 10.0 mi SW 4.6 mph - N/A   Mostly Cloudy
8:35 AM 35.6 °F 31.7 °F 24.8 °F 65% 29.78 in 10.0 mi SW 4.6 mph - N/A   Overcast
8:55 AM 35.6 °F 30.7 °F 26.6 °F 70% 29.78 in 10.0 mi WSW 5.8 mph - N/A   Overcast
9:15 AM 35.6 °F 30.7 °F 26.6 °F 70% 29.79 in 10.0 mi WSW 5.8 mph - N/A   Partly Cloudy
9:35 AM 37.4 °F 31.4 °F 28.4 °F 70% 29.79 in 10.0 mi WSW 8.1 mph - N/A   Clear
9:55 AM 39.2 °F 32.5 °F 30.2 °F 70% 29.79 in 10.0 mi WSW 10.4 mph - N/A   Mostly Cloudy
10:15 AM 41.0 °F 36.4 °F 30.2 °F 65% 29.78 in 10.0 mi WSW 6.9 mph - N/A   Overcast
10:35 AM 44.6 °F 40.7 °F 33.8 °F 66% 29.78 in 10.0 mi WSW 6.9 mph - N/A   Overcast
10:55 AM 46.4 °F 41.9 °F 35.6 °F 66% 29.77 in 10.0 mi WSW 9.2 mph - N/A   Scattered Clouds
11:15 AM 46.4 °F 40.1 °F 35.6 °F 66% 29.78 in 10.0 mi West 15.0 mph - N/A   Scattered Clouds
11:35 AM 48.2 °F - 35.6 °F 62% 29.78 in 10.0 mi West 11.5 mph - N/A   Mostly Cloudy
11:55 AM 46.4 °F 40.4 °F 33.8 °F 62% 29.77 in 10.0 mi West 13.8 mph - N/A   Mostly Cloudy
12:15 PM 48.2 °F - 33.8 °F 58% 29.77 in 10.0 mi West 16.1 mph - N/A   Mostly Cloudy
12:35 PM 46.4 °F 39.8 °F 33.8 °F 62% 29.78 in 10.0 mi NW 16.1 mph 23.0 mph N/A   Mostly Cloudy
12:55 PM 46.4 °F 38.7 °F 33.8 °F 62% 29.78 in 10.0 mi WNW 20.7 mph 27.6 mph N/A   Mostly Cloudy
1:15 PM 46.4 °F 39.5 °F 33.8 °F 62% 29.78 in 10.0 mi WNW 17.3 mph 25.3 mph N/A   Overcast
1:35 PM - - - N/A% 29.77 in 10.0 mi WNW 16.1 mph 24.2 mph N/A   Overcast
1:55 PM 44.6 °F 38.1 °F 35.6 °F 71% 29.78 in 10.0 mi WNW 13.8 mph - N/A   Overcast
2:15 PM 42.8 °F 36.6 °F 35.6 °F 76% 29.78 in 10.0 mi West 11.5 mph - N/A   Overcast
2:35 PM 44.6 °F 38.4 °F 35.6 °F 71% 29.78 in 10.0 mi West 12.7 mph - N/A   Overcast
3:35 PM 46.4 °F 40.7 °F 35.6 °F 66% 29.78 in 10.0 mi West 12.7 mph - N/A   Overcast
3:55 PM 46.4 °F 41.5 °F 35.6 °F 66% 29.78 in 10.0 mi West 10.4 mph 19.6 mph N/A   Mostly Cloudy
4:15 PM 48.2 °F - 33.8 °F 58% 29.77 in 10.0 mi WNW 9.2 mph 21.9 mph N/A   Scattered Clouds
4:35 PM 50.0 °F - 32.0 °F 50% 29.77 in 10.0 mi WNW 13.8 mph 23.0 mph N/A   Mostly Cloudy
4:55 PM - - - N/A% 29.77 in 10.0 mi WNW 18.4 mph - N/A   Scattered Clouds
5:15 PM 48.2 °F - 28.4 °F 46% 29.78 in 10.0 mi WNW 13.8 mph - N/A   Partly Cloudy
5:35 PM 48.2 °F - 28.4 °F 46% 29.78 in 10.0 mi NW 12.7 mph 16.1 mph N/A   Clear
5:55 PM 46.4 °F 41.5 °F 30.2 °F 53% 29.79 in 10.0 mi NW 10.4 mph - N/A   Clear
6:15 PM 46.4 °F 42.4 °F 30.2 °F 53% 29.79 in 10.0 mi WNW 8.1 mph - N/A   Clear
6:35 PM 44.6 °F 40.7 °F 30.2 °F 57% 29.79 in 10.0 mi WNW 6.9 mph - N/A   Clear
6:55 PM 44.6 °F 42.2 °F 28.4 °F 53% 29.79 in 10.0 mi WNW 4.6 mph - N/A   Partly Cloudy
7:15 PM 41.0 °F 39.0 °F 28.4 °F 61% 29.79 in 10.0 mi WNW 3.5 mph - N/A   Scattered Clouds
7:35 PM 41.0 °F - 28.4 °F 61% 29.78 in 10.0 mi Calm Calm - N/A   Partly Cloudy
7:55 PM 37.4 °F - 28.4 °F 70% 29.78 in 10.0 mi Calm Calm - N/A   Clear
8:15 PM 39.2 °F - 28.4 °F 65% 29.78 in 10.0 mi Calm Calm - N/A   Scattered Clouds
8:35 PM 39.2 °F 35.9 °F 28.4 °F 65% 29.77 in 10.0 mi SSW 4.6 mph - N/A   Mostly Cloudy
8:55 PM 41.0 °F 39.0 °F 30.2 °F 65% 29.77 in 10.0 mi South 3.5 mph - N/A   Clear
9:15 PM 41.0 °F 37.1 °F 30.2 °F 65% 29.76 in 10.0 mi South 5.8 mph - N/A   Mostly Cloudy
9:35 PM 42.8 °F 39.3 °F 30.2 °F 61% 29.76 in 10.0 mi South 5.8 mph - N/A   Overcast
9:55 PM 42.8 °F 41.1 °F 30.2 °F 61% 29.76 in 10.0 mi SW 3.5 mph - N/A   Overcast
10:15 PM 42.8 °F 41.1 °F 30.2 °F 61% 29.76 in 10.0 mi West 3.5 mph - N/A   Overcast
10:35 PM 41.0 °F 39.0 °F 30.2 °F 65% 29.76 in 10.0 mi SW 3.5 mph - N/A   Overcast
10:55 PM 42.8 °F 40.1 °F 30.2 °F 61% 29.75 in 10.0 mi SSW 4.6 mph - N/A   Overcast
11:15 PM 42.8 °F 39.3 °F 30.2 °F 61% 29.74 in 10.0 mi SSW 5.8 mph - N/A   Overcast
11:35 PM 42.8 °F 39.3 °F 30.2 °F 61% 29.74 in 10.0 mi South 5.8 mph - N/A   Overcast
11:55 PM 44.6 °F 42.2 °F 33.8 °F 66% 29.73 in 10.0 mi South 4.6 mph - N/A   Overcast